BIRKBGBW

Guest
Details From BIRK - Reykjavik
To BGBW - Narsarsuaq
Flight Number -
Tags decoded
Created
Modified
Stats Distance 670 nm / 1,241 km
Max Altitude 0 ft / 0 m
Waypoints 3
Social Downloads 0
Likes 0
Share VATSIM

Download

Looking for another format? Having issues loading an existing format? Contact us
Advertisement - Login to hide

Notes

Requested: BIRK EMBLA 63 62 BGBW Unmatched points: 63 62

Route

BIRK EMBLA BGBW

ID Type Via Altitude Latitude Longitude Leg Dist Tot Dist Heading (true) Name
O BIRK APT - 0 ft / 0 m 64.12964˚ -21.94061˚ - 0 nm - Reykjavik
EMBLA FIX - 0 ft / 0 m 63.47000˚ -26.98167˚ 139 nm 139 nm 256° / 251° -
O BGBW APT - 0 ft / 0 m 61.16052˚ -45.42598˚ 530 nm 670 nm 263° / 247° Narsarsuaq

Altitude Profile

Advertisement - Login to hide

Weather


0- 5 10 15 20 25 30 35+ Temperature / ° C

Clouds and Precipitation
Forecast for 2017-12-19 00:00 UTC. Updated 2 hours ago

Ground ~20,000 ft ~40,000 ft Winds

BIRK

Details ICAO BIRK (RKV)
Name Reykjavik
Region Iceland
Timezone Atlantic/Reykjavik (UTC+0.0)
Stats Elevation 47 ft / 14 m (AMSL)
Location 64.129644° -21.940609°
Runways 3
Magnetic Variation 13.772° W

METAR

BIRK 182000Z 23011KT 3500 -DZ BR BKN004 OVC013 04/03 Q0986

Decode

TAF

TAF BIRK 181959Z 1821/1921 23015KT 5000 RADZ BKN020 OVC030 TX03/1821Z TN02/1915Z TEMPO 1821/1824 1500 RADZ BR BKN003 OVC015 BECMG 1901/1903 22020G30KT SHRA TEMPO 1906/1918 5000 SHRASN BKN020CB BECMG 1918/1921 20018KT 9999

Decode

Departure Runways

ID Width Length Bearing (true) Bearing (mag) Surface Threshold Offset Overrun Length
01 148 ft / 45 m 5,129 ft / 1,563 m 355.27° 9.04° Asphalt 262 ft / 80 m 0 ft / 0 m
06 98 ft / 30 m 2,800 ft / 853 m 46.35° 60.12° Asphalt 299 ft / 91 m 0 ft / 0 m
13 148 ft / 45 m 4,023 ft / 1,226 m 116.28° 130.05° Asphalt 0 ft / 0 m 0 ft / 0 m
19 148 ft / 45 m 5,129 ft / 1,563 m 175.27° 189.04° Asphalt 0 ft / 0 m 0 ft / 0 m
24 98 ft / 30 m 2,800 ft / 853 m 226.37° 240.14° Asphalt 0 ft / 0 m 0 ft / 0 m
31 148 ft / 45 m 4,023 ft / 1,226 m 296.30° 310.07° Asphalt 213 ft / 65 m 0 ft / 0 m

BGBW

Details ICAO BGBW (UAK)
Name Narsarsuaq
Region Greenland
Timezone America/Godthab (UTC-3.0)
Stats Elevation 112 ft / 34 m (AMSL)
Location 61.160516° -45.425976°
Runways 1
Magnetic Variation 22.902° W

METAR

BGBW 181950Z 19018KT 9999 DRSN FEW007 SCT010 BKN020 M03/M09 Q0979

Decode

TAF

Not found

Destination Runways

ID Width Length Bearing (true) Bearing (mag) Surface Threshold Offset Overrun Length
07 148 ft / 45 m 5,921 ft / 1,805 m 40.57° 63.47° Concrete 0 ft / 0 m 0 ft / 0 m
25 148 ft / 45 m 5,921 ft / 1,805 m 220.58° 243.48° Concrete 0 ft / 0 m 279 ft / 85 m

Popular Alternatives